Location: U-46 Planetarium
(42.0300°N, 88.2740°W)
Time: 13:50:23
(UTC-06:00)

Daily predictions for brighter satellites

Satellite Brightness Start Highest point End
(mag) Time Altitude Azimuth Time Altitude Azimuth Time Altitude Azimuth
Meteor 1-11 Rocket 3.7 16:41:53 10° N 16:47:28 78° E 16:52:59 10° SSE
Cosmos 1975 Rocket 3.7 16:44:53 10° SSE 16:48:48 34° E 16:52:43 10° NNE
Ariane Rocket 3.9 16:44:24 10° S 16:49:23 56° W 16:54:23 10° NNW
Meteor 2-13 Rocket 4.4 16:44:08 10° N 16:50:17 76° E 16:56:21 10° SSE
USA 234 3.5 16:44:17 10° NE 16:50:49 75° NW 16:57:19 10° WSW
MSX 4.5 16:45:59 10° SE 16:51:01 32° ENE 16:56:03 10° N
SMAP 3.4 16:47:44 10° SE 16:52:05 42° ENE 16:56:28 10° N
Okean 3 3.6 16:49:13 10° S 16:53:26 57° E 16:57:38 10° NNE
SJ-12 4.2 16:50:14 10° SE 16:54:06 44° ENE 16:58:02 10° N
Cosmos 2263 Rocket 2.9 16:49:17 10° SW 16:54:46 56° WNW 17:00:20 10° NNE
NOSS 3-1 (A) 4.2 16:48:34 10° NW 16:56:13 90° SW 17:04:35 10° SSE
Thor Agena Rocket 3.9 16:51:35 10° NNE 16:56:37 48° E 17:01:40 10° S
CZ-3B DEB 2.9 16:54:51 10° S 16:57:56 28° ESE 17:04:19 10° ENE
Cosmos 1125 Rocket 3.5 16:53:10 10° SSW 16:58:27 76° ESE 17:03:47 10° NNE
CZ-4 R/B 1.5 16:56:14 10° SSE 17:00:23 64° ENE 17:04:32 10° N
Cosmos 1269 Rocket 4.0 16:56:34 10° NNW 17:01:55 79° ENE 17:07:13 10° SSE
ATLAS 2AS CENTAUR R/B 3.4 17:00:30 10° NNW 17:08:14 45° NE 17:15:33 10° ESE
Cosmos 1812 4.1 17:06:21 10° SE 17:09:08 19° E 17:11:56 10° NE
SL-8 Rocket 4.1 17:03:26 10° N 17:09:26 50° ENE 17:15:22 10° SSE
Cosmos 2251 Rocket 4.3 17:07:09 10° N 17:11:55 31° ENE 17:16:37 10° ESE
YAOGAN 1 2.6 17:08:16 10° SSE 17:12:32 61° ENE 17:16:49 10° N
Meteor 1-27 Rocket 4.3 17:06:51 10° SSW 17:12:39 64° WNW 17:18:24 10° N
Cosmos 1633 3.2 17:09:52 10° NNW 17:13:24 59° W 17:16:55 10° S
Abrixas 4.0 17:14:09 10° WNW 17:16:42 25° N 17:18:36 14° NE
Cosmos 2366 rocket 4.3 17:12:50 10° N 17:18:53 44° ENE 17:24:52 10° SSE
Cosmos 1975 4.2 17:16:09 10° NNE 17:19:08 19° ENE 17:22:05 10° ESE
Cosmos 2218 Rocket 4.2 17:13:11 10° N 17:19:19 50° ENE 17:25:19 10° SSE
Cosmos 2181 Rocket 4.0 17:13:06 10° S 17:19:24 81° E 17:25:51 10° N
OTV 4 2.0 17:17:45 10° WSW 17:20:27 30° S 17:23:08 10° ESE
Cosmos 1844 Rocket 2.8 17:16:10 10° S 17:21:34 54° ESE 17:27:03 10° NNE
MOS 1 4.3 17:16:47 10° SSE 17:22:27 89° W 17:28:09 10° NNW
Cosmos 1378 Rocket 4.3 17:20:32 10° SSW 17:24:45 54° W 17:28:59 10° N
Cosmos 1844 4.0 17:23:20 10° S 17:28:36 45° ESE 17:33:29 12° NE
SL-27 R/B 3.0 17:25:37 10° N 17:29:06 39° ENE 17:32:33 10° SE
Meteor 2-19 Rocket 4.4 17:25:28 10° N 17:31:30 66° E 17:37:30 10° SSE
GEOS 3 Rocket 3.7 17:26:39 10° ESE 17:31:38 54° NE 17:36:37 10° NNW
SKYMED 2 4.1 17:28:09 10° NNE 17:32:12 36° E 17:36:12 10° SSE
Cosmos 1455 Rocket 3.3 17:31:12 10° N 17:35:26 46° ENE 17:39:41 10° SSE
ISS -3.3 17:33:58 10° SW 17:37:14 68° SE 17:38:49 28° ENE
CORIOLIS 4.4 17:35:56 10° S 17:41:21 75° WSW 17:46:46 10° NNW
COSMOS 2406 3.6 17:39:26 10° NNW 17:45:08 69° WSW 17:50:49 10° SSE
Cosmos 158 Rocket 4.4 17:40:52 10° NNW 17:46:13 69° WSW 17:51:26 10° S
Cosmos 2278 Rocket 2.7 17:41:48 10° S 17:47:00 39° ESE 17:50:04 22° NE
SL-08 R/B 4.5 17:44:17 10° N 17:50:44 81° E 17:57:02 10° S
Cosmos 1484 Rocket 2.5 17:51:55 10° SSE 17:55:41 80° ENE 17:59:27 10° N
CZ-2C R/B 3.6 17:51:18 10° S 17:56:00 46° W 18:00:53 10° NNW
Cosmos 1238 Rocket 2.3 18:00:24 10° SSW 18:03:23 67° W 18:04:44 28° N
IDEFIX/ARIANE 42P 4.2 18:06:42 10° SSW 18:11:26 35° W 18:16:11 10° NNW
Cosmos 2082 Rocket 3.1 18:06:37 10° N 18:10:50 29° NE 18:10:50 29° NE
Nadezhda 3 Rocket 4.0 18:09:05 10° SSE 18:15:04 56° E 18:21:09 10° NNE
Okean 1 3.2 18:11:59 10° S 18:16:01 90° SW 18:17:54 31° N
OPS 8737 4.2 18:13:03 10° SW 18:16:12 79° SSW 18:16:12 79° SSW
Cosmos 1833 Rocket 3.8 18:14:50 10° N 18:18:13 26° NNE 18:18:13 26° NNE
COSMO-SKYMED 1 2.9 18:16:32 13° N 18:20:18 65° WNW 18:24:36 10° SSW
Meteor 2-21 4.3 18:17:13 10° N 18:23:26 75° E 18:29:34 10° SSE
Cosmos 1500 4.5 18:23:12 10° N 18:28:52 30° S 18:30:52 10° S
Meteor 1-28 Rocket 3.2 18:29:51 81° WSW 18:29:51 81° WSW 18:33:31 10° SSW
USA 234 4.4 18:29:59 21° NNE 18:33:12 32° NNW 18:38:48 10° WNW
METEOR-M 4.0 18:32:57 10° SSE 18:38:17 83° ENE 18:43:40 10° NNW
Cosmos 1346 Rocket 3.4 18:35:35 10° SSW 18:38:33 49° SSW 18:38:33 49° SSW
NOAA 12 4.1 18:35:54 10° S 18:41:11 79° WSW 18:46:29 10° NNW
Meteor 2-14 Rocket 4.3 18:42:11 10° N 18:48:23 86° E 18:54:32 10° S
NOSS 3-3 (A) 4.0 18:44:31 10° SW 18:50:43 82° NW 18:52:24 53° NNE
NOSS 3-3 (C) 4.0 18:44:37 10° SW 18:50:49 83° NW 18:52:28 54° NNE
OTV 4 3.8 18:54:45 10° WSW 18:55:03 11° SW 18:55:03 11° SW
ATLAS 2AS CENTAUR R/B 3.7 18:51:45 10° NW 18:59:26 51° WSW 19:06:35 10° S
FALCON 9 R/B 3.4 18:42:25 10° WSW 19:00:15 51° S 19:01:52 44° SSE
Timation 2 Rocket 4.1 19:05:49 10° NNW 19:12:40 85° WSW 19:13:13 77° S
Cosmos 2297 4.2 19:07:23 10° SSW 19:11:32 51° SSW 19:11:32 51° SSW
ISS 0.1 19:11:15 10° WNW 19:11:30 11° WNW 19:11:30 11° WNW
ATLAS 3B CENTAUR R/B 4.1 19:09:56 10° WSW 19:20:44 29° SSW 19:22:04 28° S
Cosmos 2278 Rocket 3.6 19:26:08 10° WSW 19:31:08 32° NW 19:31:58 30° NW
CZ-3B DEB 3.7 19:27:30 10° W 19:32:49 48° NNW 19:34:11 45° N
Cosmos 2082 Rocket 4.1 19:50:28 10° NW 19:52:44 23° NW 19:52:44 23° NW
